Regional Weather Roundup
Issued by NWS

Home | Current Version | Previous Version | Graphics & Text | Print | Product List | Glossary On
Versions: 1 2 3 4 5 6 7 8 9 10 11 12 13 14 15 16 17 18 19 20 21 22 23 24 25 26 27 28 29 30 31 32 33 34 35 36 37 38 39 40 41 42 43 44 45 46 47 48 49 50
802
ASUS43 KDMX 161706
RWRIA

WEATHER ROUNDUP FOR IOWA
NATIONAL WEATHER SERVICE DES MOINES IA
1200 PM CDT MON OCT 16 2017

NOTE: "FAIR" INDICATES FEW OR NO CLOUDS BELOW 12,000 FEET WITH NO
SIGNIFICANT WEATHER AND/OR OBSTRUCTIONS TO VISIBILITY.

* - THESE STATIONS ARE NOT NWS STATIONS...THUS NOT UNDER NWS
QUALITY CONTROL.  THEY ALSO DO NOT REPORT WEATHER SUCH
AS PRECIPITATION OR FOG.

IAZ001>003-012>014-020>022-031>034-043>046-161800-
   NORTHWEST IOWA

CITY           SKY/WX    TMP DP  RH WIND       PRES   REMARKS
CARROLL *      SUNNY     66  39  37 S16G22    30.28F
CHEROKEE *     SUNNY     61  37  39 SW13      30.25F
DENISON *      SUNNY     64  34  32 S17       30.29F
LE MARS *      SUNNY     63  36  36 S14G20    30.22F
ORANGE CITY *  SUNNY     63  37  39 S17       30.22F
SHELDON *      SUNNY     63  34  34 SW13      30.21F
SIOUX CITY     SUNNY     65  37  35 S14G22    30.24
SPENCER        SUNNY     62  35  36 SW15G23   30.24F
STORM LAKE *   SUNNY     63  34  34 SW15      30.26F
$$

IAZ055>058-069>071-079>083-090>094-161800-
   SOUTHWEST IOWA

CITY           SKY/WX    TMP DP  RH WIND       PRES   REMARKS
ATLANTIC *     SUNNY     63  36  36 S16       30.30F
AUDUBON *      SUNNY     63  36  36 S13       30.31F
CLARINDA *     SUNNY     64  37  36 S12       30.35F
COUNCIL BLFS * SUNNY     63  39  42 S12G17    30.30F
CRESTON *      SUNNY     63  36  36 SW13      30.34F
HARLAN  *      SUNNY     64  37  36 S15       30.32F
LAMONI         SUNNY     63  36  36 SW13      30.35S HAZE
RED OAK *      SUNNY     64  37  36 S14G21    30.32F
SHENANDOAH *   SUNNY     66  34  30 S13G20    30.33F
$$

IAZ047>049-059>061-072>074-084-161800-
   CENTRAL IOWA

CITY           SKY/WX    TMP DP  RH WIND       PRES   REMARKS
AMES           SUNNY     63  34  33 SW12G18   30.31F
ANKENY *       SUNNY     61  39  44 SW8       30.33F
BOONE *        SUNNY     63  36  36 SW13      30.30F
CHARITON *     SUNNY     63  37  39 SW10      30.33F
DES MOINES     SUNNY     63  37  38 SW12      30.32F
GRINNELL*      SUNNY     58  38  46 W8        30.34S
KNOXVILLE *    SUNNY     63  34  34 SW9       30.32S
MARSHALLTOWN   SUNNY     60  37  42 SW9       30.30F
NEWTON *       SUNNY     61  37  41 W7        30.32F
PELLA *        SUNNY     61  38  41 SW5       30.34F
PERRY *          N/A     64  31  29 SW14      30.31F
$$

IAZ004>006-015-016-023>025-035-036-161800-
   NORTH CENTRAL IOWA

CITY           SKY/WX    TMP DP  RH WIND       PRES   REMARKS
ALGONA *       SUNNY     61  36  39 SW13G21   30.26F
CLARION *      SUNNY     61  36  39 SW12      30.28F
ESTHERVILLE    SUNNY     59  34  39 SW18G25   30.24
FORT DODGE *   SUNNY     62  36  37 SW14      30.29F
MASON CITY     SUNNY     59  35  40 SW10      30.29F
FOREST CITY *    N/A     59  36  41 SW9       30.27F
WEBSTER CITY * SUNNY     63  32  31 SW9G18    30.27F
IOWA FALLS *     N/A     61  34  37 W8        30.31S
$$

IAZ007>011-017>019-026>030-037>042-050>054-066-161800-
   NORTHEAST IOWA

CITY           SKY/WX    TMP DP  RH WIND       PRES   REMARKS
CEDAR RAPIDS   SUNNY     60  38  43 SW12      30.31F
CHARLES CITY * SUNNY     59  34  38 SW8       30.29S
CLINTON *      SUNNY     59  40  49 W5        30.33S
DECORAH *      SUNNY     55  39  54 VRB7G14   30.27S
DUBUQUE        SUNNY     57  37  47 SW9       30.31R
MONTICELLO *   SUNNY     59  37  44 SW12      30.30F
OELWEIN *      SUNNY     59  37  44 W12       30.30S
WATERLOO       SUNNY     58  37  45 SW6       30.29F
$$

IAZ064-065-067-068-078-161800-
   EAST CENTRAL IOWA

CITY           SKY/WX    TMP DP  RH WIND       PRES   REMARKS
DAVENPORT      SUNNY     59  36  42 W8        30.34F
IOWA CITY      SUNNY     61  39  44 W8        30.33F
MUSCATINE *    SUNNY     59  43  55 SW7       30.34S
QUAD CITIES    SUNNY     61  40  45 NW3       30.32F
$$

IAZ062-063-075>077-085>089-095>099-161800-
   SOUTHEAST IOWA

CITY           SKY/WX    TMP DP  RH WIND       PRES   REMARKS
BURLINGTON     SUNNY     59  42  53 VRB5      30.34F
FAIRFIELD *    SUNNY     61  39  44 W9        30.34S
FORT MADISON * SUNNY     59  45  58 S3        30.35F
KEOKUK *       SUNNY     59  43  55 SW5       30.35F
OSKALOOSA *      N/A     61  37  41 W7        30.34S
OTTUMWA        SUNNY     61  40  45 W9        30.34S
WASHINGTON *   SUNNY     61  41  48 SW10      30.34F
$$

ABBREVIATIONS USED IN REMARKS
   TC - TEMPERATURES IN CELSIUS
  WCI - WIND CHILL INDEX
   HX - HEAT INDEX
  VSB - VISIBILITY
$$





USA.gov is the U.S. government's official web portal to all federal, state and local government web resources and services.